TimeEST,TemperatureF,Dew PointF,Humidity,Sea Level PressureIn,VisibilityMPH,Wind Direction,Wind SpeedMPH,Gust SpeedMPH,PrecipitationIn,Events,Conditions,WindDirDegrees,DateUTC
12:17 AM,42.8,41.0,93,29.82,1.8,WNW,3.5,-,N/A,,Overcast,290,2013-02-24 05:17:00
12:37 AM,42.8,42.8,100,29.82,2.0,Calm,Calm,-,N/A,,Overcast,0,2013-02-24 05:37:00
12:57 AM,42.8,42.8,100,29.81,2.5,Calm,Calm,-,N/A,,Overcast,0,2013-02-24 05:57:00
1:17 AM,42.8,42.8,100,29.81,2.5,Calm,Calm,-,N/A,,Overcast,0,2013-02-24 06:17:00
1:37 AM,42.8,42.8,100,29.81,3.0,Calm,Calm,-,N/A,,Overcast,0,2013-02-24 06:37:00
1:57 AM,42.8,42.8,100,29.82,3.0,WNW,4.6,-,N/A,,Overcast,300,2013-02-24 06:57:00
2:17 AM,42.8,41.0,93,29.81,3.0,NW,3.5,-,N/A,,Overcast,310,2013-02-24 07:17:00
2:37 AM,42.8,41.0,93,29.81,4.0,Calm,Calm,-,N/A,,Overcast,0,2013-02-24 07:37:00
2:57 AM,42.8,41.0,93,29.80,7.0,NNW,4.6,-,N/A,,Overcast,340,2013-02-24 07:57:00
3:17 AM,42.8,41.0,93,29.81,5.0,NW,3.5,-,N/A,,Overcast,310,2013-02-24 08:17:00
3:37 AM,42.8,41.0,93,29.81,5.0,Calm,Calm,-,N/A,,Overcast,0,2013-02-24 08:37:00
3:57 AM,42.8,41.0,93,29.81,10.0,WNW,3.5,-,N/A,,Overcast,300,2013-02-24 08:57:00
4:17 AM,42.8,41.0,93,29.81,7.0,Calm,Calm,-,N/A,,Overcast,0,2013-02-24 09:17:00
4:57 AM,41.0,39.2,93,29.80,10.0,Calm,Calm,-,N/A,,Overcast,0,2013-02-24 09:57:00
5:17 AM,41.0,39.2,93,29.81,10.0,WNW,3.5,-,N/A,,Overcast,290,2013-02-24 10:17:00
5:37 AM,41.0,39.2,93,29.82,7.0,NW,3.5,-,N/A,,Overcast,310,2013-02-24 10:37:00
5:57 AM,41.0,39.2,93,29.83,7.0,WNW,4.6,-,N/A,,Overcast,300,2013-02-24 10:57:00
6:17 AM,41.0,39.2,93,29.85,7.0,WNW,5.8,-,N/A,,Overcast,300,2013-02-24 11:17:00
6:37 AM,41.0,39.2,93,29.87,5.0,West,6.9,-,N/A,,Overcast,280,2013-02-24 11:37:00
6:57 AM,41.0,39.2,93,29.87,5.0,West,5.8,-,N/A,,Overcast,280,2013-02-24 11:57:00
7:17 AM,41.0,39.2,93,29.85,3.0,Calm,Calm,-,N/A,,Overcast,0,2013-02-24 12:17:00
7:37 AM,41.0,39.2,93,29.86,4.0,Calm,Calm,-,N/A,,Overcast,0,2013-02-24 12:37:00
7:57 AM,41.0,39.2,93,29.87,4.0,Calm,Calm,-,N/A,,Overcast,0,2013-02-24 12:57:00
8:17 AM,41.0,39.2,93,29.87,5.0,North,3.5,-,N/A,,Overcast,360,2013-02-24 13:17:00
8:37 AM,42.8,39.2,87,29.89,5.0,WNW,3.5,-,N/A,,Overcast,290,2013-02-24 13:37:00
8:58 AM,42.8,39.2,87,29.89,5.0,NW,3.5,-,N/A,,Overcast,310,2013-02-24 13:58:00
9:18 AM,42.8,39.2,87,29.88,7.0,NNW,3.5,-,N/A,,Overcast,340,2013-02-24 14:18:00
9:38 AM,44.6,41.0,87,29.89,7.0,NNW,4.6,-,N/A,,Mostly Cloudy,330,2013-02-24 14:38:00
9:58 AM,44.6,39.2,81,29.90,10.0,NNW,4.6,-,N/A,,Scattered Clouds,330,2013-02-24 14:58:00
10:18 AM,46.4,37.4,71,29.89,10.0,NW,6.9,16.1,N/A,,Scattered Clouds,310,2013-02-24 15:18:00
10:38 AM,46.4,37.4,71,29.89,10.0,NW,4.6,16.1,N/A,,Scattered Clouds,320,2013-02-24 15:38:00
10:58 AM,48.2,35.6,62,29.89,10.0,NNW,3.5,-,N/A,,Mostly Cloudy,330,2013-02-24 15:58:00
11:18 AM,50.0,32.0,50,29.89,10.0,NW,8.1,18.4,N/A,,Scattered Clouds,310,2013-02-24 16:18:00
11:38 AM,50.0,32.0,50,29.89,10.0,WNW,11.5,17.3,N/A,,Clear,290,2013-02-24 16:38:00
11:58 AM,50.0,32.0,50,29.88,10.0,WNW,8.1,17.3,N/A,,Scattered Clouds,300,2013-02-24 16:58:00
12:18 PM,50.0,30.2,47,29.88,10.0,WNW,10.4,18.4,N/A,,Scattered Clouds,290,2013-02-24 17:18:00
12:38 PM,51.8,30.2,44,29.87,10.0,West,12.7,21.9,N/A,,Scattered Clouds,280,2013-02-24 17:38:00
12:58 PM,51.8,30.2,44,29.86,10.0,West,9.2,-,N/A,,Mostly Cloudy,280,2013-02-24 17:58:00
1:18 PM,51.8,30.2,44,29.86,10.0,West,9.2,-,N/A,,Scattered Clouds,280,2013-02-24 18:18:00
1:38 PM,51.8,30.2,44,29.86,10.0,WNW,5.8,-,N/A,,Scattered Clouds,300,2013-02-24 18:38:00
1:58 PM,51.8,30.2,44,29.86,10.0,WNW,10.4,-,N/A,,Mostly Cloudy,300,2013-02-24 18:58:00
2:18 PM,51.8,30.2,44,29.86,10.0,WNW,11.5,-,N/A,,Overcast,300,2013-02-24 19:18:00
2:38 PM,53.6,30.2,41,29.86,10.0,WNW,11.5,17.3,N/A,,Mostly Cloudy,290,2013-02-24 19:38:00
2:58 PM,50.0,30.2,47,29.86,10.0,WNW,6.9,-,N/A,,Scattered Clouds,300,2013-02-24 19:58:00
3:18 PM,51.8,28.4,41,29.86,10.0,West,8.1,-,N/A,,Scattered Clouds,280,2013-02-24 20:18:00
3:38 PM,53.6,28.4,38,29.87,10.0,WNW,9.2,-,N/A,,Scattered Clouds,290,2013-02-24 20:38:00
3:58 PM,51.8,28.4,41,29.87,10.0,West,5.8,-,N/A,,Clear,280,2013-02-24 20:58:00
4:18 PM,51.8,28.4,41,29.88,10.0,WNW,3.5,-,N/A,,Clear,300,2013-02-24 21:18:00
4:38 PM,51.8,26.6,38,29.88,10.0,WNW,4.6,-,N/A,,Clear,300,2013-02-24 21:38:00
4:58 PM,50.0,26.6,40,29.89,10.0,NW,4.6,-,N/A,,Mostly Cloudy,310,2013-02-24 21:58:00
5:19 PM,50.0,24.8,37,29.91,10.0,NNW,3.5,-,N/A,,Scattered Clouds,340,2013-02-24 22:19:00
5:39 PM,50.0,24.8,37,29.91,10.0,NNW,5.8,-,N/A,,Clear,330,2013-02-24 22:39:00
5:59 PM,46.4,23.0,40,29.93,10.0,NNW,5.8,-,N/A,,Clear,330,2013-02-24 22:59:00
6:19 PM,46.4,23.0,40,29.95,10.0,NNW,4.6,-,N/A,,Clear,330,2013-02-24 23:19:00
6:39 PM,44.6,23.0,43,29.97,10.0,NW,8.1,24.2,N/A,,Clear,320,2013-02-24 23:39:00
6:59 PM,42.8,24.8,49,29.99,10.0,NNW,9.2,-,N/A,,Clear,330,2013-02-24 23:59:00
7:19 PM,41.0,23.0,49,30.01,10.0,NNW,8.1,20.7,N/A,,Clear,330,2013-02-25 00:19:00
7:39 PM,41.0,23.0,49,30.03,10.0,NNW,9.2,20.7,N/A,,Clear,330,2013-02-25 00:39:00
7:59 PM,37.4,21.2,52,30.04,10.0,NW,10.4,19.6,N/A,,Clear,320,2013-02-25 00:59:00
8:19 PM,37.4,23.0,56,30.06,10.0,NNW,5.8,-,N/A,,Clear,330,2013-02-25 01:19:00
8:39 PM,37.4,23.0,56,30.07,10.0,NNW,9.2,-,N/A,,Clear,330,2013-02-25 01:39:00
8:59 PM,35.6,23.0,60,30.08,10.0,NNW,8.1,16.1,N/A,,Clear,330,2013-02-25 01:59:00
9:19 PM,35.6,23.0,60,30.09,10.0,NW,9.2,17.3,N/A,,Clear,320,2013-02-25 02:19:00
9:39 PM,35.6,21.2,56,30.10,10.0,NW,9.2,16.1,N/A,,Clear,320,2013-02-25 02:39:00
9:59 PM,35.6,17.6,48,30.11,10.0,NNW,10.4,17.3,N/A,,Clear,330,2013-02-25 02:59:00
10:19 PM,35.6,17.6,48,30.11,10.0,NW,9.2,18.4,N/A,,Clear,320,2013-02-25 03:19:00
10:39 PM,35.6,17.6,48,30.11,10.0,NW,5.8,18.4,N/A,,Clear,310,2013-02-25 03:39:00
10:59 PM,33.8,17.6,52,30.11,10.0,WNW,6.9,-,N/A,,Clear,300,2013-02-25 03:59:00
11:19 PM,33.8,17.6,52,30.11,10.0,NW,8.1,-,N/A,,Clear,310,2013-02-25 04:19:00
11:39 PM,33.8,17.6,52,30.11,10.0,WNW,6.9,-,N/A,,Clear,300,2013-02-25 04:39:00
11:59 PM,33.8,17.6,52,30.11,10.0,NW,6.9,-,N/A,,Clear,310,2013-02-25 04:59:00